[[{"header":{"parameterUnit":"m.s-1","parameterCategory":1,"la1":30.2991,"la2":30.254,"lo1":-89.0895,"lo2":-89.0444,"dy":0.0017,"dx":0.0017,"nx":28,"ny":28,"refTime":"2023-09-19T03:00:00:Z","depth":0,"parameterNumber":2,"parameterNumberName":"U-component_of_WINDS"},"data":[0,0,0,0,0,0,0,0,0,0,0,0,0,0,0,0,0,0,0,0,0,0,0,0,0,0,0,0,0,0,0,0,0,0,0,0,0,0,0,0,0,0,0,0,0,0,0,0,0,0,0,0,0,0,0,0,0,0,0.9186,0.9187,0,0.9268,0.9269,0.927,0.9302,0.9302,0.9302,0.9302,0.9387,0.9389,0.9392,0,0,0,0,0,0,0,0,0,0,0,0,0,0.9057,0.906,0.9186,0.9187,0.9188,0.9268,0.9269,0.927,0.9303,0.9302,0.9302,0.9302,0.9386,0.9389,0.9392,0,0,0,0,0,0,0,0,0,0,0,0,0,0.9124,0.906,0.9186,0.9214,0.9217,0.9268,0.9269,0.927,0.9303,0.9302,0.9302,0.9302,0.9385,0.9389,0.9392,0.9421,0,0,0.9404,0.9405,0,0,0,0,0,0,0,0,0.912,0.9128,0.9208,0.9212,0.9216,0.9275,0.9255,0.9321,0.9303,0.927,0.9302,0.9301,0.935,0.9356,0.9373,0.9425,0.9429,0.9404,0.9406,0.9408,0.9409,0,0,0,0,0,0,0,0.9115,0.9125,0.9218,0.921,0.9214,0.9222,0.9231,0.9268,0.9311,0.9273,0.9275,0.9285,0.9352,0.9369,0.9375,0.943,0.9404,0.9407,0.9409,0.9411,0.9511,0.9511,0,0,0,0,0,0,0.9106,0.9121,0.9216,0.9221,0.9166,0.9225,0.9235,0.9256,0.931,0.9318,0.9285,0.9286,0.9363,0.937,0.9378,0.9415,0.9408,0.9411,0.9413,0.951,0.9511,0.9511,0,0,0,0,0,0,0.9103,0.9114,0.9212,0.9172,0.9185,0.9227,0.9251,0.9258,0.9275,0.932,0.9327,0.9294,0.9363,0.9373,0.941,0.9419,0.9413,0.9416,0.951,0.951,0.9511,0.949,0,0,0,0,0,0,0.9099,0.9113,0.9124,0.9172,0.9187,0.9243,0.9251,0.926,0.9281,0.9283,0.9331,0.9338,0.9363,0.9405,0.9414,0.9424,0.9419,0.9509,0.951,0.9511,0.949,0.949,0.949,0,0,0,0,0,0.9095,0.9115,0.9125,0.9136,0.9202,0.9244,0.9252,0.9281,0.9282,0.9294,0.9322,0.9337,0.9416,0.9408,0.9419,0.943,0.9509,0.951,0.9511,0.9491,0.949,0.949,0,0,0,0,0,0,0.9068,0.9122,0.9133,0.917,0.9202,0.9249,0.9265,0.9279,0.9312,0.9313,0.9347,0.9357,0.9392,0.9415,0.9405,0.9461,0.9464,0.9467,0.9444,0.9445,0.9444,0.9438,0.9422,0,0,0,0,0,0.9067,0.9096,0.9141,0.917,0.9185,0.9222,0.9241,0.926,0.9295,0.9309,0.934,0.9373,0.9406,0.9426,0.9459,0.9494,0.9505,0.9507,0.9506,0.9506,0.9508,0.9528,0.953,0.9515,0.9515,0.9515,0,0,0.9064,0.9097,0.9113,0.9165,0.9192,0.9222,0.9233,0.9264,0.9286,0.9314,0.9351,0.9375,0.9414,0.945,0.9468,0.947,0.9515,0.9507,0.9507,0.9509,0.9529,0.9531,0.9532,0.9515,0.9515,0.9515,0,0,0.9074,0.9102,0.9128,0.9155,0.9195,0.922,0.9226,0.9271,0.9288,0.9326,0.9346,0.9373,0.9429,0.9456,0.9477,0.9496,0.9511,0.9506,0.9505,0.9524,0.9525,0.9526,0.9533,0.9535,0.9508,0.9508,0.9508,0,0.9066,0.9111,0.914,0.917,0.9192,0.9217,0.9244,0.9268,0.9318,0.9332,0.9334,0.9404,0.9432,0.9475,0.9479,0.9496,0.9504,0.9501,0.9522,0.9524,0.9525,0.9532,0.9535,0.9507,0.9507,0.9507,0.9507,0,0.9098,0.9129,0.9145,0.9192,0.9215,0.9243,0.9277,0.9298,0.9314,0.9339,0.9376,0.9411,0.9451,0.9462,0.9479,0.9507,0.9508,0.9515,0.9519,0.9525,0.9532,0.9535,0.9506,0.9506,0.9506,0.9507,0,0,0.9094,0.9156,0.9161,0.9183,0.9229,0.9254,0.9282,0.9321,0.9338,0.9371,0.9396,0.9442,0.9449,0.9473,0.9493,0.951,0.9522,0.9515,0.9517,0.9515,0.9555,0.9549,0.9551,0.9532,0.9533,0.9533,0.9552,0,0.911,0.9163,0.919,0.9231,0.926,0.9284,0.931,0.9341,0.9364,0.9392,0.9418,0.945,0.9457,0.9471,0.9489,0.9517,0.9531,0.9516,0.9556,0.9557,0.9545,0.9555,0.9549,0.9564,0.9555,0.9555,0.9555,0,0.9136,0.9168,0.9212,0.9255,0.9268,0.929,0.9327,0.9354,0.9389,0.9405,0.9431,0.9451,0.9482,0.9483,0.9527,0.9516,0.9534,0.955,0.9551,0.9556,0.9556,0.956,0.957,0.9573,0.956,0.956,0.9559,0,0.9128,0.9183,0.9216,0.9233,0.9284,0.9299,0.9321,0.9356,0.9377,0.941,0.9424,0.946,0.9479,0.9506,0.9535,0.9533,0.9576,0.9579,0.959,0.9589,0.9598,0.9597,0.9611,0.9609,0.9609,0.9609,0.9609,0,0.9143,0.9169,0.9213,0.9234,0.9263,0.9294,0.9323,0.9346,0.9378,0.9403,0.9426,0.945,0.9486,0.9514,0.9537,0.9569,0.9578,0.9592,0.9597,0.959,0.9588,0.9602,0.9601,0.961,0.961,0.9609,0.9609,0,0.914,0.917,0.9208,0.9253,0.9265,0.9285,0.9323,0.9344,0.9368,0.94,0.9409,0.9447,0.9481,0.9512,0.9558,0.9573,0.9606,0.9613,0.9593,0.9596,0.9605,0.9604,0.9629,0.9633,0.9628,0.9628,0.9628,0,0.9147,0.9168,0.9215,0.9233,0.9254,0.9284,0.9306,0.9337,0.9358,0.94,0.9416,0.9452,0.9482,0.9535,0.9567,0.9601,0.961,0.9616,0.9615,0.9606,0.961,0.9608,0.961,0.9615,0.9615,0.9615,0.9615,0,0.9157,0.9171,0.9202,0.9237,0.9262,0.9291,0.9322,0.9335,0.9372,0.9395,0.943,0.9453,0.9499,0.9534,0.9573,0.9595,0.9611,0.9615,0.9619,0.9612,0.96,0.9606,0.9592,0.9615,0.9615,0.9615,0.9615,0.9615,0.916,0.9179,0.9215,0.9248,0.9273,0.9301,0.9322,0.9349,0.9379,0.9418,0.9435,0.947,0.9505,0.9558,0.958,0.9608,0.9612,0.9618,0.9619,0.962,0.9619,0.9595,0.9615,0.9615,0.9616,0.9616,0.9616,0,0.9171,0.9195,0.9225,0.9266,0.9292,0.9304,0.9338,0.9359,0.939,0.9421,0.945,0.949,0.9524,0.9558,0.9593,0.9609,0.9618,0.9618,0.9617,0.9622,0.9614,0.9607,0.961,0.961,0.961,0.961,0.961,0.961,0.918,0.9213,0.9231,0.9277,0.9301,0.9336,0.9354,0.9379,0.9404,0.9448,0.9476,0.9498,0.953,0.9568,0.96,0.9609,0.9621,0.9619,0.963,0.9622,0.9622,0.9622,0.9616,0.9621,0.9621,0.9636,0.9636,0.9636]},{"header":{"parameterUnit":"m.s-1","parameterCategory":1,"la1":30.2991,"la2":30.254,"lo1":-89.0895,"lo2":-89.0444,"dy":0.0017,"dx":0.0017,"nx":28,"ny":28,"refTime":"2023-09-19T03:00:00:Z","depth":0,"parameterNumber":3,"parameterNumberName":"V-component_of_WINDS"},"data":[0,0,0,0,0,0,0,0,0,0,0,0,0,0,0,0,0,0,0,0,0,0,0,0,0,0,0,0,0,0,0,0,0,0,0,0,0,0,0,0,0,0,0,0,0,0,0,0,0,0,0,0,0,0,0,0,0,0,1.0859,1.0858,0,1.0721,1.072,1.0718,1.056,1.0558,1.0555,1.0553,1.0411,1.041,1.0408,0,0,0,0,0,0,0,0,0,0,0,0,0,1.0985,1.0983,1.0859,1.0858,1.0856,1.0721,1.072,1.0718,1.056,1.0558,1.0555,1.0552,1.0412,1.041,1.0408,0,0,0,0,0,0,0,0,0,0,0,0,0,1.0897,1.0983,1.086,1.0761,1.0751,1.0722,1.0719,1.0717,1.0561,1.0558,1.0554,1.0551,1.0412,1.041,1.0408,1.0464,0,0,1.04,1.0399,0,0,0,0,0,0,0,0,1.0902,1.0893,1.0778,1.0768,1.0757,1.0654,1.0711,1.0632,1.0562,1.0633,1.0553,1.0549,1.0495,1.0485,1.0467,1.0457,1.0451,1.04,1.0399,1.0398,1.0397,0,0,0,0,0,0,0,1.0908,1.0898,1.0805,1.0776,1.0763,1.0723,1.0707,1.0696,1.0586,1.0627,1.0615,1.0601,1.0488,1.047,1.0463,1.0449,1.04,1.0398,1.0397,1.0396,1.0472,1.0476,0,0,0,0,0,0,1.093,1.0904,1.0809,1.08,1.0822,1.0724,1.0706,1.0691,1.0585,1.0566,1.0604,1.0594,1.0476,1.0466,1.0457,1.0511,1.0398,1.0395,1.0394,1.0469,1.0473,1.0477,0,0,0,0,0,0,1.0933,1.0923,1.0815,1.0849,1.0832,1.0726,1.071,1.069,1.0671,1.0568,1.0547,1.0605,1.0473,1.046,1.0462,1.0504,1.0394,1.0392,1.0465,1.047,1.0475,1.0624,0,0,0,0,0,0,1.0937,1.0925,1.0946,1.085,1.0831,1.0823,1.0713,1.069,1.0667,1.0653,1.0564,1.0546,1.0469,1.0466,1.046,1.0499,1.039,1.0461,1.0467,1.0473,1.0615,1.0634,1.065,0,0,0,0,0,1.0942,1.0994,1.0948,1.0937,1.0855,1.0826,1.0814,1.0725,1.0672,1.0691,1.0624,1.0548,1.0502,1.0468,1.0459,1.0499,1.0457,1.0465,1.0473,1.0607,1.063,1.0649,0,0,0,0,0,0,1.1097,1.098,1.0927,1.095,1.0899,1.0799,1.0821,1.0753,1.0716,1.0704,1.0595,1.0576,1.059,1.0545,1.0509,1.0545,1.0468,1.0475,1.0573,1.0594,1.0612,1.062,1.0388,0,0,0,0,0,1.1134,1.1121,1.1019,1.1049,1.1026,1.0929,1.0913,1.0848,1.0791,1.0769,1.0702,1.0649,1.0622,1.0606,1.0576,1.0609,1.0584,1.0631,1.0649,1.0664,1.0669,1.0678,1.0696,1.0503,1.0502,1.0502,0,0,1.121,1.1144,1.1142,1.1078,1.1031,1.1018,1.0911,1.0903,1.0892,1.0767,1.0763,1.0713,1.0646,1.0663,1.0667,1.0625,1.0718,1.0674,1.0686,1.0683,1.0688,1.0707,1.0723,1.0508,1.0507,1.0506,0,0,1.134,1.1291,1.1308,1.1263,1.1193,1.1128,1.1132,1.1042,1.1004,1.0999,1.0903,1.0889,1.0846,1.08,1.0772,1.0884,1.0811,1.0878,1.0968,1.0978,1.0993,1.1006,1.1041,1.1056,1.0884,1.0885,1.0885,0,1.1442,1.142,1.1326,1.1322,1.1295,1.1182,1.1197,1.1158,1.1082,1.1065,1.1021,1.0962,1.0909,1.0911,1.0938,1.0921,1.092,1.0885,1.0999,1.1011,1.1021,1.1054,1.1068,1.0893,1.0892,1.0891,1.089,0,1.1547,1.1533,1.1556,1.1484,1.146,1.1467,1.1371,1.1358,1.1296,1.1235,1.1229,1.1163,1.1115,1.1111,1.1051,1.1104,1.108,1.102,1.0939,1.105,1.1078,1.109,1.0905,1.0902,1.0899,1.0897,0,0,1.1769,1.1645,1.1654,1.1618,1.1533,1.1519,1.152,1.1473,1.1462,1.1414,1.1409,1.1374,1.1316,1.1284,1.1218,1.1228,1.1315,1.1165,1.1162,1.1191,1.1364,1.1407,1.1423,1.1268,1.1271,1.1272,1.1367,0,1.188,1.1873,1.1788,1.1805,1.1788,1.1681,1.168,1.1627,1.157,1.1547,1.1484,1.1459,1.1387,1.1366,1.1372,1.1304,1.1348,1.1296,1.1259,1.1259,1.1275,1.1438,1.1484,1.1577,1.1379,1.138,1.1382,0,1.2009,1.1966,1.1982,1.1893,1.1883,1.1884,1.1832,1.1813,1.175,1.1707,1.1671,1.1596,1.1588,1.1516,1.1501,1.1468,1.1448,1.1413,1.1414,1.1403,1.1324,1.1428,1.1605,1.1618,1.1399,1.1398,1.1397,0,1.2163,1.2111,1.2112,1.2086,1.1983,1.1986,1.1944,1.1877,1.1853,1.1808,1.1791,1.1747,1.1721,1.1687,1.1601,1.1558,1.1595,1.1517,1.1556,1.1558,1.1565,1.1565,1.1738,1.1561,1.1561,1.1561,1.156,0,1.2293,1.2305,1.2179,1.2179,1.2189,1.2091,1.2103,1.205,1.1991,1.1978,1.1884,1.1873,1.1762,1.1738,1.1671,1.1666,1.1657,1.162,1.1601,1.1625,1.163,1.1608,1.1597,1.1564,1.1563,1.1563,1.1562,0,1.2465,1.2382,1.2375,1.2279,1.2255,1.2266,1.2182,1.2177,1.2115,1.2099,1.209,1.1991,1.1958,1.187,1.1814,1.1768,1.1781,1.1749,1.1802,1.1789,1.1831,1.1827,1.1992,1.2007,1.1827,1.1828,1.183,0,1.2551,1.2558,1.2462,1.2446,1.2408,1.2384,1.2359,1.2263,1.224,1.2167,1.2171,1.213,1.2092,1.2043,1.1966,1.1922,1.1885,1.1946,1.1877,1.1901,1.188,1.1878,1.1876,1.196,1.1962,1.1964,1.1966,0,1.2711,1.2669,1.2637,1.259,1.2563,1.2522,1.2474,1.2467,1.2358,1.2338,1.2302,1.2273,1.2215,1.2174,1.2118,1.2072,1.2,1.1989,1.1994,1.2017,1.2045,1.2026,1.1837,1.1984,1.1982,1.1981,1.198,1.1979,1.2839,1.2838,1.277,1.2737,1.2692,1.265,1.2639,1.2575,1.2544,1.2489,1.2435,1.2405,1.2338,1.2255,1.2214,1.2187,1.215,1.216,1.2161,1.2164,1.2173,1.2054,1.2177,1.2177,1.2176,1.2176,1.2175,0,1.299,1.2941,1.2911,1.2848,1.2821,1.2758,1.2702,1.2683,1.2658,1.2603,1.2567,1.2524,1.2484,1.2404,1.2355,1.2349,1.2315,1.2339,1.2336,1.2326,1.2212,1.2209,1.2368,1.2368,1.2368,1.2368,1.2368,1.2368,1.3065,1.3059,1.3009,1.2979,1.293,1.2899,1.2872,1.2832,1.2787,1.2744,1.271,1.2658,1.2592,1.2538,1.2497,1.2474,1.2458,1.2493,1.2459,1.2353,1.2335,1.2317,1.2314,1.2492,1.2492,1.2575,1.2575,1.2576]}]]